Location: Zagreb
(45.8000°N, 16.0000°E)
Time: 23:26:26
(UTC+02:00)

Envisat - Pass Details

Date: 01 May 2024
Orbit: 762 x 764 km, 98.3° (Epoch: 27 May)

Event Time Altitude Azimuth Distance (km) Brightness Sun altitude
Rises 04:01:54 0° 17° (NNE) 3,238 7.3 -15.6°
Reaches altitude 10° 04:04:15 10° 21° (NNE) 2,307 6.5 -15.3°
Maximum altitude 04:09:16 58° 101° (E) 892 3.5 -14.7°
Drops below altitude 10° 04:14:14 10° 180° (S) 2,290 5.1 -14.0°
Enters shadow 04:14:47 - 181° (S) 2,505 5.3 -13.9°
